Location: Bemmer
(51.5498°N, 5.6249°E)
Time: 12:45:39
(UTC+00:00)

SL-16 R/B - Pass Details

Date: 03 March 2021
Orbit: 843 x 845 km, 71.0° (Epoch: 16 April)

Event Time Altitude Azimuth Distance (km) Brightness Sun altitude
Rises 19:31:48 0° 235° (SW) 3,395 5.9 -20.8°
Reaches altitude 10° 19:34:23 10° 243° (WSW) 2,464 5.2 -21.2°
Maximum altitude 19:39:41 40° 312° (NW) 1,234 3.5 -22.0°
Drops below altitude 10° 19:45:02 10° 22° (NNE) 2,479 4.6 -22.8°
Sets 19:47:39 0° 30° (NNE) 3,418 5.3 -23.2°
